| time (UTC) | temp F | wind direction | speed MPH | gust MPH | rain 1hr in | rain 24hr in | rain mn in | humidity % | barometer mb |
| 20260902043005 | 63 | 213 | 3.0 | 8.0 | 0.00 | 0.00 | 0.00 | 69 | 1017.3 |
| 20260902041505 | 62 | 255 | 3.0 | 12.0 | 0.00 | 0.00 | 0.00 | 71 | 1017.4 |
| 20260902040005 | 62 | 231 | 3.0 | 10.0 | 0.00 | 0.00 | 0.00 | 70 | 1017.5 |
| 20260902034503 | 62 | 311 | 3.0 | 11.0 | 0.00 | 0.00 | 0.00 | 70 | 1017.4 |
| 20260902033003 | 62 | 277 | 4.0 | 7.0 | 0.00 | 0.00 | 0.00 | 71 | 1017.6 |
| 20260902031503 | 62 | 251 | 5.0 | 14.0 | 0.00 | 0.00 | 0.00 | 69 | 1017.6 |
| 20260902030002 | 62 | 259 | 3.0 | 8.0 | 0.00 | 0.00 | 0.00 | 72 | 1017.6 |
| 20260902024601 | 62 | 253 | 4.0 | 17.0 | 0.00 | 0.00 | 0.00 | 71 | 1017.6 |
| 20260902023102 | 62 | 226 | 4.0 | 11.0 | 0.00 | 0.00 | 0.00 | 68 | 1017.5 |
| 20260902021608 | 63 | 173 | 6.0 | 13.0 | 0.00 | 0.00 | 0.00 | 67 | 1017.7 |
| 20260902020104 | 63 | 240 | 6.0 | 12.0 | 0.00 | 0.00 | 0.00 | 67 | 1017.7 |
| 20260902014559 | 63 | 222 | 2.0 | 12.0 | 0.00 | 0.00 | 0.00 | 69 | 1017.7 |
| 20260902013156 | 63 | 204 | 3.0 | 9.0 | 0.00 | 0.00 | 0.00 | 70 | 1017.9 |
| 20260902011554 | 63 | 263 | 2.0 | 10.0 | 0.00 | 0.00 | 0.00 | 69 | 1018.0 |
| 20260902010054 | 63 | 317 | 4.0 | 13.0 | 0.00 | 0.00 | 0.00 | 70 | 1018.2 |
| 20260902004551 | 62 | 183 | 1.0 | 5.0 | 0.00 | 0.00 | 0.00 | 73 | 1018.5 |
| 20260902003051 | 62 | 150 | 1.0 | 3.0 | 0.00 | 0.00 | 0.00 | 74 | 1018.3 |
| 20260902001550 | 62 | 181 | 1.0 | 12.0 | 0.00 | 0.00 | 0.00 | 73 | 1018.6 |
| 20260902000052 | 61 | 207 | 3.0 | 12.0 | 0.00 | 0.00 | 0.00 | 74 | 1018.6 |
| 20260901234553 | 60 | 328 | 3.0 | 7.0 | 0.00 | 0.00 | 0.00 | 76 | 1019.0 |
| 20260901233041 | 60 | 285 | 3.0 | 10.0 | 0.00 | 0.00 | 0.00 | 76 | 1019.0 |
| 20260901231537 | 59 | 167 | 2.0 | 8.0 | 0.00 | 0.00 | 0.00 | 78 | 1019.0 |
| 20260901230042 | 59 | 174 | 2.0 | 4.0 | 0.00 | 0.00 | 0.00 | 77 | 1019.2 |
| 20260901224533 | 58 | 170 | 2.0 | 6.0 | 0.00 | 0.00 | 0.00 | 78 | 1019.3 |
| 20260901223031 | 58 | 188 | 1.0 | 6.0 | 0.00 | 0.00 | 0.00 | 79 | 1019.4 |
| 20260901221540 | 57 | 194 | 3.0 | 12.0 | 0.00 | 0.00 | 0.00 | 79 | 1019.5 |
| 20260901220030 | 57 | 138 | 2.0 | 6.0 | 0.00 | 0.00 | 0.00 | 79 | 1019.5 |
| 20260901214529 | 57 | 138 | 2.0 | 10.0 | 0.00 | 0.00 | 0.00 | 79 | 1019.4 |
| 20260901213053 | 57 | 262 | 3.0 | 10.0 | 0.00 | 0.00 | 0.00 | 78 | 1019.5 |
| 20260901211537 | 57 | 197 | 4.0 | 12.0 | 0.00 | 0.00 | 0.00 | 80 | 1019.4 |
| 20260901210031 | 56 | 335 | 4.0 | 12.0 | 0.00 | 0.00 | 0.00 | 81 | 1019.4 |
| 20260901204520 | 56 | 258 | 4.0 | 10.0 | 0.00 | 0.00 | 0.00 | 83 | 1019.3 |
| 20260901203031 | 55 | 248 | 5.0 | 12.0 | 0.00 | 0.00 | 0.00 | 83 | 1019.4 |
| 20260901201518 | 55 | 207 | 4.0 | 12.0 | 0.00 | 0.00 | 0.00 | 83 | 1019.2 |
| 20260901200034 | 54 | 210 | 2.0 | 7.0 | 0.00 | 0.00 | 0.00 | 82 | 1019.0 |
| 20260901194510 | 54 | 194 | 2.0 | 8.0 | 0.00 | 0.00 | 0.00 | 83 | 1018.9 |
| 20260901193009 | 53 | 242 | 2.0 | 5.0 | 0.00 | 0.00 | 0.00 | 83 | 1018.6 |
| 20260901191508 | 53 | 171 | 1.0 | 7.0 | 0.00 | 0.00 | 0.00 | 83 | 1018.5 |
| 20260901190007 | 52 | 219 | 2.0 | 7.0 | 0.00 | 0.00 | 0.00 | 83 | 1018.4 |
| 20260901184505 | 52 | 204 | 1.0 | 4.0 | 0.00 | 0.00 | 0.00 | 83 | 1018.2 |
| 20260901183006 | 52 | 155 | 0.0 | 4.0 | 0.00 | 0.00 | 0.00 | 82 | 1018.2 |
| 20260901181507 | 52 | 207 | 1.0 | 6.0 | 0.00 | 0.00 | 0.00 | 81 | 1018.2 |
| 20260901180100 | 52 | 169 | 2.0 | 9.0 | 0.00 | 0.00 | 0.00 | 80 | 1018.0 |
| 20260901174559 | 52 | 165 | 0.0 | 6.0 | 0.00 | 0.00 | 0.00 | 80 | 1017.8 |
| 20260901173057 | 52 | 184 | 0.0 | 6.0 | 0.00 | 0.00 | 0.00 | 79 | 1017.6 |
| 20260901171607 | 52 | 150 | 1.0 | 8.0 | 0.00 | 0.00 | 0.00 | 79 | 1017.4 |
| 20260901170057 | 52 | 226 | 1.0 | 8.0 | 0.00 | 0.00 | 0.00 | 79 | 1017.4 |
| 20260901164556 | 53 | 272 | 3.0 | 12.0 | 0.00 | 0.00 | 0.00 | 78 | 1017.2 |
| 20260901163054 | 53 | 210 | 2.0 | 12.0 | 0.00 | 0.00 | 0.00 | 77 | 1017.2 |
| 20260901161652 | 53 | 235 | 3.0 | 10.0 | 0.00 | 0.00 | 0.00 | 77 | 1016.8 |
| 20260901160054 | 53 | 215 | 3.0 | 7.0 | 0.00 | 0.00 | 0.00 | 76 | 1016.9 |
| 20260901154550 | 53 | 158 | 5.0 | 12.0 | 0.00 | 0.00 | 0.00 | 76 | 1017.0 |
| 20260901153103 | 53 | 214 | 1.0 | 9.0 | 0.00 | 0.00 | 0.00 | 77 | 1016.9 |
| 20260901151549 | 53 | 166 | 2.0 | 9.0 | 0.00 | 0.00 | 0.00 | 77 | 1017.1 |
| 20260901150046 | 53 | 215 | 3.0 | 12.0 | 0.00 | 0.00 | 0.00 | 77 | 1017.1 |
| 20260901144543 | 53 | 215 | 2.0 | 10.0 | 0.00 | 0.00 | 0.00 | 78 | 1017.3 |
| 20260901143041 | 52 | 171 | 0.0 | 5.0 | 0.00 | 0.00 | 0.00 | 80 | 1017.5 |
| 20260901141552 | 52 | 136 | 1.0 | 4.0 | 0.00 | 0.00 | 0.00 | 81 | 1017.7 |
| 20260901140043 | 52 | 149 | 1.0 | 5.0 | 0.00 | 0.00 | 0.00 | 81 | 1017.5 |
| 20260901134538 | 52 | 164 | 1.0 | 7.0 | 0.00 | 0.00 | 0.00 | 82 | 1017.6 |
| 20260901133040 | 52 | 208 | 2.0 | 9.0 | 0.00 | 0.00 | 0.00 | 81 | 1017.6 |
| 20260901131534 | 52 | 197 | 1.0 | 5.0 | 0.00 | 0.00 | 0.00 | 79 | 1018.0 |
| 20260901130032 | 53 | 139 | 1.0 | 7.0 | 0.00 | 0.00 | 0.00 | 77 | 1017.9 |
| 20260901124530 | 52 | 156 | 1.0 | 6.0 | 0.00 | 0.00 | 0.00 | 76 | 1017.7 |
| 20260901123029 | 53 | 172 | 2.0 | 9.0 | 0.00 | 0.00 | 0.00 | 75 | 1017.9 |
| 20260901121535 | 53 | 194 | 2.0 | 10.0 | 0.00 | 0.00 | 0.00 | 74 | 1017.9 |
| 20260901120038 | 53 | 219 | 3.0 | 12.0 | 0.00 | 0.00 | 0.00 | 75 | 1017.7 |
| 20260901114523 | 53 | 211 | 4.0 | 11.0 | 0.00 | 0.00 | 0.00 | 75 | 1017.7 |
| 20260901113020 | 53 | 198 | 3.0 | 10.0 | 0.00 | 0.00 | 0.00 | 75 | 1017.7 |
| 20260901111519 | 53 | 257 | 5.0 | 13.0 | 0.00 | 0.00 | 0.00 | 75 | 1017.6 |
| 20260901110016 | 53 | 219 | 4.0 | 12.0 | 0.00 | 0.00 | 0.00 | 76 | 1017.5 |
| 20260901104513 | 53 | 274 | 3.0 | 10.0 | 0.00 | 0.00 | 0.00 | 76 | 1017.5 |
| 20260901103011 | 53 | 216 | 5.0 | 13.0 | 0.00 | 0.00 | 0.00 | 75 | 1017.4 |
| 20260901101510 | 53 | 205 | 4.0 | 10.0 | 0.00 | 0.00 | 0.00 | 76 | 1017.3 |
| 20260901100010 | 53 | 207 | 3.0 | 11.0 | 0.00 | 0.00 | 0.00 | 76 | 1017.3 |
| 20260901094516 | 54 | 228 | 3.0 | 16.0 | 0.00 | 0.00 | 0.00 | 74 | 1017.2 |
| 20260901093006 | 54 | 190 | 4.0 | 8.0 | 0.00 | 0.00 | 0.00 | 75 | 1017.2 |
| 20260901091506 | 53 | 249 | 3.0 | 14.0 | 0.00 | 0.00 | 0.00 | 75 | 1017.3 |
| 20260901090008 | 54 | 166 | 3.0 | 11.0 | 0.00 | 0.00 | 0.00 | 76 | 1017.2 |
| 20260901084504 | 54 | 270 | 4.0 | 11.0 | 0.00 | 0.00 | 0.00 | 75 | 1017.2 |
| 20260901083059 | 54 | 193 | 3.0 | 10.0 | 0.00 | 0.00 | 0.00 | 75 | 1016.9 |
| 20260901081557 | 54 | 274 | 4.0 | 0.0 | 0.00 | 0.00 | 0.00 | 74 | 1016.8 |
| 20260901080055 | 54 | 271 | 5.0 | 13.0 | 0.00 | 0.00 | 0.00 | 72 | 1016.9 |
| 20260901074552 | 54 | 212 | 5.0 | 10.0 | 0.00 | 0.00 | 0.00 | 70 | 1016.6 |
| 20260901073051 | 54 | 214 | 5.0 | 10.0 | 0.00 | 0.00 | 0.00 | 70 | 1016.4 |
| 20260901071558 | 54 | 216 | 4.0 | 10.0 | 0.00 | 0.00 | 0.00 | 70 | 1016.5 |
| 20260901070046 | 55 | 208 | 4.0 | 11.0 | 0.00 | 0.00 | 0.00 | 70 | 1016.4 |
| 20260901064544 | 55 | 159 | 4.0 | 11.0 | 0.00 | 0.00 | 0.00 | 70 | 1016.0 |
| 20260901063043 | 55 | 219 | 3.0 | 8.0 | 0.00 | 0.00 | 0.00 | 70 | 1016.0 |
| 20260901061543 | 56 | 252 | 3.0 | 10.0 | 0.00 | 0.00 | 0.00 | 71 | 1015.8 |
| 20260901060039 | 56 | 191 | 2.0 | 7.0 | 0.00 | 0.00 | 0.00 | 71 | 1015.6 |
| 20260901054538 | 56 | 252 | 4.0 | 15.0 | 0.00 | 0.00 | 0.00 | 70 | 1015.3 |
| 20260901053042 | 57 | 294 | 3.0 | 12.0 | 0.00 | 0.00 | 0.00 | 70 | 1015.1 |
| 20260901051534 | 58 | 238 | 4.0 | 16.0 | 0.00 | 0.00 | 0.00 | 66 | 1015.1 |
| 20260901050034 | 59 | 259 | 5.0 | 11.0 | 0.00 | 0.00 | 0.00 | 64 | 1014.8 |
| 20260901044533 | 60 | 319 | 5.0 | 17.0 | 0.00 | 0.00 | 0.00 | 61 | 1014.8 |